Date_and_time,latitude,longitude,wind_speed,RelWindDirFrom,WindDirFrom,air_pressure,air_temperature,relative_humidity,Temp,platform_speed_wrt_ground,air_pressure_at_mean_sea_level,platform_orientation
2018-05-07 23:50,50.6304183333333,-96.980785,11.8,14.2,15,985.61,10.1,53,7.88,0.0,1012.03,142.0
2018-05-08 00:00,50.6304116666667,-96.9807633333333,11.7,13.3,15,985.59,10.5,54,7.83,0.0,1012.09,203.5
2018-05-08 00:10,50.6304116666667,-96.98076,11.6,14.5,16,985.60,10.4,54,7.76,0.0,1012.21,203.5
2018-05-08 00:20,50.630415,-96.9807583333333,13.9,16.9,8,985.65,12.5,47,7.47,0.0,1012.27,203.5
2018-05-08 00:30,50.63042,-96.98076,14.6,17.4,7,985.79,14.0,44,7.35,0.0,1012.38,203.5
2018-05-08 00:40,50.63043,-96.9807566666667,14.3,17.7,7,985.95,13.5,46,7.36,0.0,1012.54,203.5
2018-05-08 00:50,50.6304416666667,-96.9807716666667,13.3,16.9,7,986.07,12.5,50,7.41,0.0,1012.75,203.5
2018-05-08 01:00,50.6304416666667,-96.9807816666667,13.1,15.4,10,986.26,11.1,55,7.39,0.0,1013.03,318.8
2018-05-08 01:10,50.63044,-96.980775,12.5,16.1,5,986.41,10.6,55,7.35,0.0,1013.19,318.8
2018-05-08 01:20,50.63044,-96.9807733333333,13.8,16.1,358,986.53,13.0,48,7.14,0.0,1013.22,318.8
2018-05-08 01:30,50.63042,-96.9807816666667,9.9,14.2,345,986.76,13.2,46,6.93,0.0,1013.46,318.8
2018-05-08 01:40,50.6304233333333,-96.9807783333333,8.0,10.0,337,986.92,14.3,41,7.00,0.0,1013.56,318.8
2018-05-08 01:50,50.6304266666667,-96.9807683333333,10.6,15.1,337,986.90,15.8,34,7.11,0.0,1013.44,318.8
2018-05-08 02:00,50.630445,-96.9808183333333,13.2,18.7,343,986.90,17.4,28,7.13,0.0,1013.37,298.1
2018-05-08 02:10,50.6304283333333,-96.9807733333333,14.4,20.1,346,986.93,17.8,28,7.23,0.0,1013.29,298.1
2018-05-08 02:20,50.63042,-96.98077,15.3,19.8,344,986.99,17.7,28,7.37,0.0,1013.29,298.1
2018-05-08 02:30,50.6304266666667,-96.9807616666667,15.2,19.6,345,987.14,17.6,29,7.47,0.0,1013.47,298.1
2018-05-08 02:40,50.6304283333333,-96.9807583333333,15.4,21.4,347,987.29,17.1,30,7.50,0.0,1013.69,298.1
2018-05-08 02:50,50.6304266666667,-96.9807583333333,17.8,24.2,353,987.34,16.6,32,7.53,0.0,1013.83,298.1
2018-05-08 03:00,50.6304266666667,-96.980755,20.9,26.8,357,987.35,15.9,34,7.52,0.0,1013.90,41.3
2018-05-08 03:10,50.6304283333333,-96.9807716666667,23.8,29.6,0,987.22,14.8,36,7.33,0.0,1013.71,41.3
2018-05-08 03:20,50.6304216666667,-96.9807716666667,23.6,30.5,1,987.27,13.7,39,7.29,0.0,1013.80,41.3
2018-05-08 03:30,50.6304216666667,-96.9807716666667,21.5,26.4,359,987.48,12.9,41,7.30,0.0,1014.00,41.3
2018-05-08 03:40,50.630395,-96.9807733333333,19.7,23.6,358,987.75,12.6,42,7.36,0.0,1014.22,41.3
2018-05-08 03:50,50.6304166666667,-96.98077,19.9,25.2,359,987.89,12.2,42,7.43,0.0,1014.30,41.3
2018-05-08 04:00,50.630415,-96.9807733333333,18.4,23.6,359,988.18,11.9,43,7.47,0.0,1014.60,159.9
2018-05-08 04:10,50.6304183333333,-96.9807716666667,18.1,23.3,360,988.40,11.6,44,7.52,0.0,1014.84,159.9
2018-05-08 04:20,50.6304183333333,-96.9807733333333,20.5,25.6,359,988.34,11.6,43,7.58,0.0,1014.78,159.9
2018-05-08 04:30,50.63042,-96.9807716666667,21.3,24.6,360,988.38,11.5,42,7.62,0.0,1014.85,159.9
2018-05-08 04:40,50.6304216666667,-96.9807716666667,21.7,26.0,360,988.42,11.4,42,7.62,0.0,1014.93,159.9
2018-05-08 04:50,50.6304233333333,-96.9807716666667,21.6,25.2,1,988.46,11.2,42,7.59,0.0,1015.01,159.9
2018-05-08 05:00,50.6304316666667,-96.98077,21.7,25.7,1,988.53,11.1,42,7.54,0.0,1015.13,106.8
2018-05-08 05:10,50.63043,-96.98076,21.7,25.9,4,988.64,10.7,43,7.51,0.0,1015.32,106.8
2018-05-08 05:20,50.6304266666667,-96.9807716666667,22.2,26.2,4,988.72,10.2,44,7.48,0.0,1015.46,106.8
2018-05-08 05:30,50.6304266666667,-96.980765,22.8,27.7,5,988.79,9.9,45,7.45,0.0,1015.57,106.8
2018-05-08 05:40,50.630425,-96.9807683333333,21.4,25.2,6,989.09,9.1,47,7.44,0.0,1015.93,106.8
2018-05-08 05:50,50.6304233333333,-96.98077,20.8,24.8,6,989.33,8.6,48,7.43,0.0,1016.22,106.8
2018-05-08 06:00,50.63042,-96.9807666666667,18.6,22.8,8,989.76,8.3,49,7.43,0.0,1016.69,228.3
2018-05-08 06:10,50.6304183333333,-96.9807683333333,15.4,18.9,9,990.36,7.7,51,7.43,0.0,1017.33,228.3
2018-05-08 06:20,50.6304183333333,-96.9807683333333,13.7,16.3,8,990.78,6.8,55,7.42,0.0,1017.81,228.3
2018-05-08 06:30,50.6304166666667,-96.98077,13.4,15.5,8,991.04,6.4,56,7.41,0.0,1018.10,228.3
2018-05-08 06:40,50.6304583333333,-96.9808216666667,13.6,16.5,6,991.15,6.5,56,7.40,0.0,1018.22,228.3
2018-05-08 06:50,50.63043,-96.9807883333333,14.2,17.1,5,991.23,6.7,55,7.39,0.0,1018.29,228.3
2018-05-08 07:00,50.63042,-96.980765,15.7,17.9,6,991.20,6.8,53,7.38,0.0,1018.28,12.6
2018-05-08 07:10,50.63042,-96.9807666666667,15.4,18.5,6,991.39,7.2,51,7.36,0.0,1018.48,12.6
2018-05-08 07:20,50.6304216666667,-96.9807666666667,16.3,19.8,7,991.39,7.1,51,7.34,0.0,1018.50,12.6
2018-05-08 07:30,50.6304216666667,-96.9807683333333,16.9,19.0,8,991.41,6.7,52,7.32,0.0,1018.57,12.6
2018-05-08 07:40,50.6304216666667,-96.9807683333333,17.7,20.5,8,991.36,6.6,52,7.30,0.0,1018.56,12.6
2018-05-08 07:50,50.6304283333333,-96.9807816666667,17.7,21.0,9,991.39,6.4,54,7.28,0.0,1018.61,12.6
2018-05-08 08:00,50.6304183333333,-96.9807583333333,18.7,24.1,10,991.40,6.1,54,7.25,0.0,1018.67,360.0
2018-05-08 08:10,50.630435,-96.98079,19.9,25.1,11,991.35,6.2,53,7.23,0.0,1018.65,360.0
2018-05-08 08:20,50.6304266666667,-96.98077,18.1,21.2,9,991.56,5.8,55,7.22,0.0,1018.91,360.0
2018-05-08 08:30,50.6304233333333,-96.9807716666667,18.3,22.1,7,991.66,5.4,57,7.20,0.0,1019.02,360.0
2018-05-08 08:40,50.63043,-96.9807616666667,16.8,19.8,8,991.94,5.0,60,7.18,0.0,1019.33,360.0
2018-05-08 08:50,50.630425,-96.9807633333333,16.8,19.3,8,992.03,4.6,61,7.17,0.0,1019.43,360.0
2018-05-08 09:00,50.630425,-96.980765,16.3,19.3,8,992.07,4.4,62,7.16,0.0,1019.47,360.0
2018-05-08 09:10,50.630425,-96.9807666666667,16.5,19.8,6,992.08,4.2,64,7.16,0.0,1019.48,360.0
2018-05-08 09:20,50.630425,-96.9807633333333,16.8,20.7,8,992.06,3.9,65,7.15,0.0,1019.50,360.0
2018-05-08 09:30,50.630425,-96.9807616666667,15.5,19.4,9,992.27,3.6,66,7.14,0.0,1019.73,360.0
2018-05-08 09:40,50.630425,-96.9807616666667,13.6,17.4,8,992.60,3.4,68,7.14,0.0,1020.10,360.0
2018-05-08 09:50,50.630425,-96.9807633333333,13.7,16.3,6,992.69,3.2,70,7.13,0.0,1020.21,360.0
2018-05-08 10:00,50.6304266666667,-96.9807616666667,14.6,17.6,7,992.66,3.1,70,7.12,0.0,1020.19,48.3
2018-05-08 10:10,50.6303983333333,-96.9807733333333,15.3,18.7,6,992.63,3.1,70,7.10,0.0,1020.17,48.3
2018-05-08 10:20,50.63043,-96.980755,14.7,17.7,7,992.78,3.0,71,7.09,0.0,1020.35,48.3
2018-05-08 10:30,50.6304333333333,-96.9807533333333,14.4,17.4,8,992.93,3.0,71,7.08,0.0,1020.53,48.3
2018-05-08 10:40,50.6304383333333,-96.9807566666667,14.6,17.7,7,993.08,2.8,73,7.07,0.0,1020.71,48.3
2018-05-08 10:50,50.6304266666667,-96.9807566666667,14.6,17.2,9,993.13,2.7,74,7.07,0.0,1020.78,48.3
2018-05-08 11:00,50.6304283333333,-96.9807583333333,14.6,17.3,8,993.29,2.5,75,7.05,0.0,1020.96,360.0
2018-05-08 11:10,50.6304266666667,-96.980755,14.7,18.1,7,993.36,2.4,77,7.04,0.0,1021.05,360.0
2018-05-08 11:20,50.6304266666667,-96.9807566666667,14.0,17.3,7,993.58,2.4,77,7.03,0.0,1021.29,360.0
2018-05-08 11:30,50.63043,-96.9807566666667,14.7,18.2,9,993.58,2.5,77,7.02,0.0,1021.30,360.0
2018-05-08 11:40,50.63043,-96.9807583333333,14.2,17.0,9,993.63,2.3,79,7.01,0.0,1021.37,360.0
2018-05-08 11:50,50.6304316666667,-96.9807583333333,13.9,17.1,10,993.68,2.4,79,7.01,0.0,1021.43,360.0
2018-05-08 12:00,50.63043,-96.9807583333333,14.1,16.8,12,993.64,2.3,80,7.00,0.0,1021.39,90.0
2018-05-08 12:10,50.6304333333333,-96.980735,13.2,15.7,12,993.77,2.2,82,6.98,0.0,1021.53,90.0
2018-05-08 12:20,50.63043,-96.9807416666667,12.9,14.9,11,993.87,2.2,83,6.98,0.0,1021.64,90.0
2018-05-08 12:30,50.6304166666667,-96.9807633333333,13.8,16.1,10,993.85,2.3,82,6.97,0.0,1021.63,90.0
2018-05-08 12:40,50.6304216666667,-96.9807616666667,13.7,15.9,10,993.92,2.3,82,6.96,0.0,1021.70,90.0
2018-05-08 12:50,50.63043,-96.9807483333333,14.2,16.9,10,993.88,2.4,82,6.93,0.0,1021.66,90.0
2018-05-08 13:00,50.6304283333333,-96.9807716666667,12.9,15.8,12,994.00,2.5,81,6.93,0.0,1021.79,270.0
2018-05-08 13:10,50.630425,-96.9807733333333,12.7,15.0,10,994.11,2.4,82,6.93,0.0,1021.90,270.0
2018-05-08 13:20,50.63044,-96.9807633333333,12.6,14.5,13,994.12,2.5,82,6.92,0.0,1021.90,270.0
2018-05-08 13:30,50.6304383333333,-96.98076,12.8,15.4,12,994.13,2.5,83,6.91,0.0,1021.92,270.0
2018-05-08 13:40,50.630435,-96.9807616666667,12.6,14.9,13,994.10,2.5,83,6.90,0.0,1021.89,270.0
2018-05-08 13:50,50.6304333333333,-96.98076,12.9,15.2,11,994.08,2.6,83,6.91,0.0,1021.86,270.0
2018-05-08 14:00,50.630435,-96.98076,13.6,16.0,10,993.99,2.8,82,6.91,0.0,1021.78,360.0
2018-05-08 14:10,50.630435,-96.9807616666667,13.6,16.2,10,993.84,2.8,82,6.89,0.0,1021.62,360.0
2018-05-08 14:20,50.6304333333333,-96.9807616666667,13.0,15.6,11,993.83,2.9,82,6.90,0.0,1021.60,360.0
2018-05-08 14:30,50.6304333333333,-96.9807616666667,12.8,15.1,12,993.80,3.0,82,6.90,0.0,1021.56,360.0
2018-05-08 14:40,50.63044,-96.9807733333333,13.8,16.3,10,993.62,3.0,82,6.90,0.0,1021.37,360.0
2018-05-08 14:50,50.6304316666667,-96.9807666666667,13.7,15.9,11,993.63,3.0,82,6.90,0.0,1021.38,360.0
2018-05-08 15:00,50.63043,-96.980765,13.8,15.8,11,993.59,3.2,81,6.91,0.0,1021.32,270.0
2018-05-08 15:10,50.6304283333333,-96.9807633333333,13.1,15.5,12,993.56,3.3,81,6.91,0.0,1021.29,270.0
2018-05-08 15:20,50.6303916666667,-96.980745,13.4,15.2,12,993.50,3.4,80,6.90,0.0,1021.23,270.0
2018-05-08 15:30,50.63042,-96.9807516666667,13.5,15.5,11,993.40,3.3,81,6.90,0.0,1021.12,270.0
2018-05-08 15:40,50.63042,-96.9807533333333,13.3,16.3,11,993.36,3.6,79,6.90,0.0,1021.07,270.0
2018-05-08 15:50,50.6304316666667,-96.980755,13.5,15.5,12,993.29,3.8,78,6.91,0.0,1020.97,270.0
2018-05-08 16:00,50.6304316666667,-96.9807533333333,14.0,16.9,11,993.25,3.9,77,6.92,0.0,1020.93,66.4
2018-05-08 16:10,50.6304316666667,-96.980755,13.8,16.8,8,993.35,4.2,75,6.92,0.0,1021.00,66.4
2018-05-08 16:20,50.6304416666667,-96.9807783333333,13.7,16.3,7,993.41,4.3,74,6.93,0.0,1021.06,66.4
2018-05-08 16:30,50.6304316666667,-96.9807616666667,13.6,16.4,8,993.41,4.3,74,6.94,0.0,1021.05,66.4
2018-05-08 16:40,50.6304283333333,-96.9807583333333,14.1,16.3,9,993.37,4.4,73,6.94,0.0,1021.00,66.4
2018-05-08 16:50,50.63043,-96.9807616666667,14.2,17.1,10,993.32,4.5,72,6.93,0.0,1020.94,66.4
2018-05-08 17:00,50.63043,-96.9807616666667,14.3,17.5,10,993.25,4.7,71,6.92,0.0,1020.86,360.0
2018-05-08 17:10,50.63043,-96.9807616666667,14.6,16.8,9,993.20,5.1,68,6.93,0.0,1020.78,360.0
2018-05-08 17:20,50.630425,-96.9807766666667,14.2,17.7,10,993.11,5.1,68,6.95,0.0,1020.70,360.0
2018-05-08 17:30,50.6304266666667,-96.9807666666667,14.4,17.6,12,992.96,5.2,66,6.97,0.0,1020.52,360.0
2018-05-08 17:40,50.630425,-96.9807616666667,14.0,17.2,11,992.86,5.3,66,6.99,0.0,1020.40,360.0
2018-05-08 17:50,50.630425,-96.98076,14.0,16.6,10,992.73,5.4,65,7.03,0.0,1020.25,360.0
2018-05-08 18:00,50.6304266666667,-96.9807633333333,13.7,16.6,10,992.59,5.4,65,7.06,0.0,1020.10,0.0
2018-05-08 18:10,50.6304266666667,-96.980765,14.3,17.7,12,992.36,5.5,63,7.07,0.0,1019.85,0.0
2018-05-08 18:20,50.6304283333333,-96.980765,13.6,16.5,12,992.24,5.4,63,7.08,0.0,1019.73,0.0
2018-05-08 18:30,50.6304183333333,-96.9807383333333,14.8,16.9,14,992.06,5.2,64,7.08,0.0,1019.54,0.0
2018-05-08 18:40,50.6304216666667,-96.9807433333333,13.9,16.4,13,991.90,5.2,64,7.09,0.0,1019.38,0.0
2018-05-08 18:50,50.630425,-96.9807516666667,13.8,15.5,14,991.73,5.2,64,7.13,0.0,1019.20,0.0
2018-05-08 19:00,50.6304366666667,-96.9807716666667,13.9,15.6,14,991.60,4.9,65,7.17,0.0,1019.06,291.5
2018-05-08 19:10,50.6304366666667,-96.9807716666667,12.9,14.9,12,991.47,5.2,63,7.23,0.0,1018.92,291.5
2018-05-08 19:20,50.630435,-96.98077,12.3,14.1,12,991.37,5.8,60,7.28,0.0,1018.78,291.5
2018-05-08 19:30,50.630435,-96.980765,12.2,14.7,11,991.23,6.0,59,7.32,0.0,1018.62,291.5
2018-05-08 19:40,50.63045,-96.9807816666667,11.6,13.3,11,991.08,6.0,58,7.37,0.0,1018.45,291.5
2018-05-08 19:50,50.6304283333333,-96.98076,12.0,13.9,9,991.00,6.2,57,7.42,0.0,1018.36,291.5
2018-05-08 20:00,50.63043,-96.98076,11.5,13.2,9,990.87,6.9,54,7.47,0.0,1018.19,0.0
2018-05-08 20:10,50.63046,-96.9807533333333,11.6,13.6,10,990.70,7.0,53,7.49,0.0,1018.01,0.0
2018-05-08 20:20,50.6304366666667,-96.9807633333333,11.6,13.6,9,990.52,6.3,56,7.57,0.0,1017.87,0.0
2018-05-08 20:30,50.630405,-96.980755,11.3,12.5,10,990.36,7.0,53,7.62,0.0,1017.68,0.0
2018-05-08 20:40,50.63044,-96.9807683333333,11.3,12.8,7,990.26,7.1,52,7.64,0.0,1017.57,0.0
2018-05-08 20:50,50.6304016666667,-96.98075,11.6,12.7,6,990.09,7.5,50,7.68,0.0,1017.39,0.0
2018-05-08 21:00,50.630425,-96.9807633333333,11.2,12.5,6,989.96,7.8,49,7.73,0.0,1017.22,90.0
2018-05-08 21:10,50.63043,-96.9807666666667,11.0,12.7,5,989.89,8.5,46,7.85,0.0,1017.09,90.0
2018-05-08 21:20,50.6304283333333,-96.9807633333333,10.7,12.6,5,989.76,8.9,44,7.87,0.0,1016.93,90.0
2018-05-08 21:30,50.630435,-96.980765,10.6,12.6,6,989.59,8.9,44,7.72,0.0,1016.75,90.0
2018-05-08 21:40,50.6304366666667,-96.9807616666667,10.4,12.5,6,989.44,8.7,45,7.72,0.0,1016.61,90.0
2018-05-08 21:50,50.6304333333333,-96.9807666666667,10.9,12.3,4,989.33,8.8,43,7.70,0.0,1016.45,90.0
2018-05-08 22:00,50.6304066666667,-96.980795,9.9,12.3,3,989.27,9.6,40,7.85,0.0,1016.34,203.7
2018-05-08 22:10,50.6304366666667,-96.9808,9.7,11.2,6,989.23,10.2,37,7.99,0.0,1016.30,203.7
2018-05-08 22:20,50.6304166666667,-96.98077,8.9,9.9,2,989.20,10.8,36,8.06,0.0,1016.21,203.7
2018-05-08 22:30,50.630415,-96.9807633333333,9.5,11.1,3,989.17,10.4,37,8.05,0.0,1016.19,203.7
2018-05-08 22:40,50.6304166666667,-96.9807633333333,9.9,11.5,5,989.10,10.9,36,8.07,0.0,1016.07,203.7
2018-05-08 22:50,50.6304166666667,-96.9807666666667,9.6,11.3,5,988.93,11.2,33,8.24,0.0,1015.88,203.7
2018-05-08 23:00,50.6304016666667,-96.98074,9.4,10.8,6,988.82,11.6,32,8.23,0.0,1015.71,147.9
2018-05-08 23:10,50.630435,-96.9807733333333,10.1,11.1,11,988.68,11.2,32,7.99,0.0,1015.56,147.9
2018-05-08 23:20,50.6304283333333,-96.98077,8.9,10.2,7,988.52,11.5,30,8.24,0.0,1015.39,147.9
2018-05-08 23:30,50.6304266666667,-96.9807666666667,7.5,8.1,7,988.40,12.4,28,8.26,0.0,1015.23,147.9
2018-05-08 23:40,50.6304283333333,-96.980775,7.6,9.1,11,988.18,12.1,29,7.95,0.0,1015.02,147.9
2018-05-08 23:50,50.6304133333333,-96.9807516666667,7.2,8.6,11,988.02,11.6,30,7.89,0.0,1014.84,147.9
